Showing default

COSMOS 2091, 20736

Orbit data source: Space-Track

COSMOS 2091, 20736 is a payload satellite owned by UNKS (CIS) in LEO that was launched on Wed, 08 Aug 1990 UTC via a TSIKLON-3 launch vehicle from the Plesetsk Missile And Space Complex (PKMTR). Payload-class satellites include a variety of spacecraft equipped with specific instruments for various scientific and technological missions. These include communications satellites like Starlink; space stations such as the ISS; scientific satellites like the Hubble; Earth observation satellites from companies like Planet Labs, Umbra, and HawkEye 360; GPS; miniature CubeSats for education and research; and military/defense satellites.

Loading next visibility...
Identifier
20736, 1990-070B
Orbit
LEO
Country
Flag of CISCIS
Related business
Manufacturer
NPO PM
Mission
Defense Communications
Bus & Motor
STRELA-3, Unknown motor
Mass
225 kg wet, 225 kg dry
Launch date (UTC)
1990-08-08 (36 years ago)
Launch vehicle
TSIKLON-3
Launch site
Plesetsk Missile And Space Complex (PKMTR)
Object type
Payload
Rocket body
Debris
Shape & HBR
Cyl, 0.8 m
Radar Cross Section
1.257 m², Large (>1 m²)

Expand to show TLE details & history
Last TLE update: 13 hours ago

TLE from 13 hours ago
0 COSMOS 2091
1 20736U 90070B   26126.37733139  .00000027  00000-0  91669-4 0  9991
2 20736  82.5806 354.8664 0003044 190.0697 343.0200 12.62559013647034
Epoch: 2026-05-06T09:03Z
TLE epoch observation values (Epoch: 2026-05-06T09:03:21.432Z)
Latitude
6.79286°
Longitude
173.90401°
Altitude
1,412.24 km
Speed
7.156 km/s
True Right ascension
11h 35m 55s
True Declination
6° 45' 21"
Sunlit
Object was in full shadow at epoch
Visualization orbit readout
Latitude
Unknown
Longitude
Unknown
Altitude
Unknown
Speed
Unknown
Apparent Right ascension
Unknown
Apparent Declination
Unknown
Sunlit
N/A
Visualization observer readout
Local Sidereal Time
06:09:38
Azimuth
Unknown
Elevation
Unknown
Doppler factor
Unknown
Orbital elements
Apogee altitude
1,412.091 km
Perigee altitude
1,407.349 km
Semi-major axis
7,787.857 km
Eccentricity
0.0003
Inclination
82.5806°
RAAN
354.8664°
Arg. of periapsis
190.0697°
True anomaly
343.00981°
Mean anomaly
343.02°
Eccentric anomaly
343.01491°
Mean motion
3.15803 °/min
Orbital period
114 mins
BSTAR
0.000091669
Loading maneuver chart data...
Computing Atmospheric mass density...
Loading historical data...
Loading historical data...
Loading historical data...
Loading historical data...
Loading historical data...
Loading historical data...
Loading historical data...

Documentation

Showing up to 5 results
|